Weather History for Jefferson, NC

Change the Weather History Date:

Saturday, May 25, 2013

  Actual Average Record
Temperature  
Mean Temperature 54 °F -  
Max Temperature 63 °F 73 °F 84 °F (1975)
Min Temperature 44 °F 49 °F 37 °F (1983)
Degree Days  
Heating Degree Days 12    
Growing Degree Days 4 (Base 50)    
Moisture  
Dew Point 26 °F    
Average Humidity 38    
Maximum Humidity 60    
Minimum Humidity 16    
Precipitation  
Precipitation 0.00 in - - ()
Sea Level Pressure  
Sea Level Pressure 30.27 in    
Wind  
Wind Speed 10 mph (NW)    
Max Wind Speed 17 mph    
Max Gust Speed 29 mph    
Visibility 10 miles    
Events      
Averages and records for this station are not official NWS values.
T = Trace of Precipitation, MM = Missing Value Source: NWS Daily Summary

Daily Weather History Graph

Daily Weather History Graph

Search for Another Location

Airport:

Trip Planner

Search our weather history database for the weather conditions in past years. The results will help you decide how hot, cold, wet, or windy it might be!

Date:

Astronomy

May. 25, 2013 Rise Set
Actual Time 6:12 AM EDT 8:33 PM EDT
Civil Twilight 5:42 AM EDT 9:03 PM EDT
Nautical Twilight 5:06 AM EDT 9:39 PM EDT
Astronomical Twilight 4:26 AM EDT 10:19 PM EDT
Moon 9:20 PM EDT (5/25) 6:37 AM EDT (5/25)
Length of Visible Light 15h 20m
Length of Day
14h 21m
Full, 100% of the Moon is Illuminated
May 25
Full
May 31
Last Quarter
Jun 8
New
Jun 16
First Quarter
Jun 23
Full

Hourly Weather History & Observations

Time (EDT) Temp. Windchill Dew Point Humidity Pressure Visibility Wind Dir Wind Speed Gust Speed Precip Events Conditions
12:15 AM 46.4 °F 42.4 °F 31.5 °F 56% 30.23 in 10.0 mi NW 8.1 mph 20.7 mph N/A   Clear
12:35 AM 46.4 °F 40.4 °F 31.5 °F 56% 30.23 in 10.0 mi NW 13.8 mph 20.7 mph N/A   Clear
12:55 AM 46.4 °F 41.1 °F 31.6 °F 56% 30.24 in 10.0 mi NW 11.5 mph 21.9 mph N/A   Clear
1:15 AM 46.2 °F 41.7 °F 31.6 °F 57% 30.24 in 10.0 mi NW 9.2 mph 20.7 mph N/A   Clear
1:35 AM 45.7 °F 39.5 °F 32.0 °F 59% 30.23 in 10.0 mi NW 13.8 mph 18.4 mph N/A   Clear
1:55 AM 45.5 °F 39.9 °F 31.8 °F 59% 30.23 in 10.0 mi NW 11.5 mph 21.9 mph N/A   Clear
2:15 AM 45.5 °F 39.6 °F 31.5 °F 58% 30.24 in 10.0 mi NW 12.7 mph 20.7 mph N/A   Clear
2:35 AM 45.5 °F 39.9 °F 31.6 °F 58% 30.23 in 10.0 mi NW 11.5 mph 20.7 mph N/A   Clear
2:55 AM 44.8 °F 40.4 °F 31.5 °F 60% 30.23 in 10.0 mi NNW 8.1 mph 17.3 mph N/A   Clear
3:15 AM 45.0 °F 39.7 °F 30.6 °F 57% 30.24 in 10.0 mi NW 10.4 mph 16.1 mph N/A   Clear
3:35 AM 45.5 °F 40.8 °F 29.7 °F 54% 30.24 in 10.0 mi West 9.2 mph 16.1 mph N/A   Clear
3:55 AM 45.1 °F 40.3 °F 29.1 °F 54% 30.25 in 10.0 mi West 9.2 mph 24.2 mph N/A   Clear
4:15 AM 45.0 °F 39.7 °F 29.7 °F 55% 30.25 in 10.0 mi WNW 10.4 mph 17.3 mph N/A   Clear
4:35 AM 44.6 °F 40.7 °F 29.8 °F 56% 30.26 in 10.0 mi NNW 6.9 mph - N/A   Clear
4:55 AM 44.4 °F 40.0 °F 30.2 °F 57% 30.26 in 10.0 mi NW 8.1 mph - N/A   Clear
5:15 AM 44.2 °F 38.8 °F 30.0 °F 57% 30.27 in 10.0 mi WNW 10.4 mph 17.3 mph N/A   Clear
5:35 AM 44.2 °F 38.0 °F 29.8 °F 57% 30.26 in 10.0 mi WNW 12.7 mph 18.4 mph N/A   Clear
5:55 AM 44.2 °F 39.2 °F 30.2 °F 58% 30.26 in 10.0 mi NW 9.2 mph 17.3 mph N/A   Clear
6:15 AM 44.1 °F 38.1 °F 30.2 °F 58% 30.27 in 10.0 mi WNW 11.5 mph 19.6 mph N/A   Clear
6:35 AM 44.6 °F 42.2 °F 30.2 °F 57% 30.29 in 10.0 mi WNW 4.6 mph 16.1 mph N/A   Clear
6:55 AM 44.6 °F 43.1 °F 30.7 °F 58% 30.30 in 10.0 mi WSW 3.5 mph - N/A   Clear
7:15 AM 45.0 °F 42.6 °F 31.1 °F 58% 30.30 in 10.0 mi WNW 4.6 mph - N/A   Clear
7:35 AM 45.7 °F 42.0 °F 30.6 °F 56% 30.31 in 10.0 mi WNW 6.9 mph - N/A   Clear
7:55 AM 46.4 °F 41.5 °F 30.6 °F 54% 30.31 in 10.0 mi NW 10.4 mph 17.3 mph N/A   Clear
8:15 AM 47.5 °F - 30.0 °F 51% 30.32 in 10.0 mi NW 11.5 mph 20.7 mph N/A   Clear
8:35 AM 48.0 °F - 29.3 °F 48% 30.32 in 10.0 mi NW 11.5 mph 23.0 mph N/A   Clear
8:55 AM 48.9 °F - 30.2 °F 48% 30.32 in 10.0 mi WNW 15.0 mph 19.6 mph N/A   Clear
9:15 AM 49.8 °F - 30.2 °F 47% 30.31 in 10.0 mi NW 12.7 mph 21.9 mph N/A   Clear
9:35 AM 51.1 °F - 28.9 °F 43% 30.31 in 10.0 mi NW 10.4 mph 16.1 mph N/A   Clear
9:55 AM 52.5 °F - 27.3 °F 38% 30.30 in 10.0 mi NNW 10.4 mph - N/A   Clear
10:15 AM 53.6 °F - 25.5 °F 34% 30.30 in 10.0 mi NW 12.7 mph - N/A   Clear
10:35 AM 54.3 °F - 20.3 °F 26% 30.32 in 10.0 mi NW 8.1 mph 19.6 mph N/A   Clear
10:55 AM 55.6 °F - 17.2 °F 22% 30.32 in 10.0 mi NNW 13.8 mph 26.5 mph N/A   Clear
11:15 AM 56.8 °F - 19.0 °F 23% 30.31 in 10.0 mi NNW 15.0 mph 20.7 mph N/A   Clear
11:35 AM 57.7 °F - 15.6 °F 19% 30.30 in 10.0 mi NW 8.1 mph 19.6 mph N/A   Clear
11:55 AM 59.2 °F - 15.8 °F 18% 30.30 in 10.0 mi North 10.4 mph - N/A   Clear
12:15 PM 59.9 °F - 19.0 °F 21% 30.30 in 10.0 mi NNW 6.9 mph - N/A   Clear
12:35 PM 61.0 °F - 19.9 °F 21% 30.29 in 10.0 mi NNW 10.4 mph - N/A   Clear
12:55 PM 61.7 °F - 21.4 °F 21% 30.29 in 10.0 mi NNW 10.4 mph - N/A   Clear
1:15 PM 61.9 °F - 17.8 °F 18% 30.29 in 10.0 mi NW 9.2 mph - N/A   Clear
1:35 PM 62.4 °F - 21.2 °F 21% 30.28 in 10.0 mi North 10.4 mph - N/A   Clear
1:55 PM 63.1 °F - 19.4 °F 19% 30.27 in 10.0 mi NNW 11.5 mph 18.4 mph N/A   Clear
2:15 PM 63.1 °F - 21.7 °F 21% 30.27 in 10.0 mi NNW 13.8 mph 19.6 mph N/A   Clear
2:35 PM 63.1 °F - 24.1 °F 23% 30.26 in 10.0 mi NW 11.5 mph 18.4 mph N/A   Clear
2:55 PM 62.1 °F - 23.4 °F 23% 30.26 in 10.0 mi NNW 12.7 mph 19.6 mph N/A   Clear
3:15 PM 62.4 °F - 26.4 °F 26% 30.27 in 10.0 mi NW 15.0 mph 25.3 mph N/A   Clear
3:35 PM 62.6 °F - 26.6 °F 26% 30.26 in 10.0 mi NNW 9.2 mph 16.1 mph N/A   Clear
3:55 PM 62.1 °F - 27.9 °F 27% 30.26 in 10.0 mi WNW 12.7 mph 23.0 mph N/A   Clear
4:15 PM 63.1 °F - 22.8 °F 21% 30.26 in 10.0 mi NW 15.0 mph 18.4 mph N/A   Clear
4:35 PM 62.6 °F - 16.2 °F 17% 30.26 in 10.0 mi NW 15.0 mph 24.2 mph N/A   Clear
4:55 PM 62.6 °F - 15.4 °F 16% 30.25 in 10.0 mi NNW 17.3 mph 24.2 mph N/A   Clear
5:15 PM 63.5 °F - 19.9 °F 19% 30.24 in 10.0 mi NNW 9.2 mph 18.4 mph N/A   Scattered Clouds
5:35 PM 62.6 °F - 20.1 °F 20% 30.24 in 10.0 mi NNW 11.5 mph 18.4 mph N/A   Scattered Clouds
5:55 PM 62.8 °F - 20.7 °F 20% 30.24 in 10.0 mi NNW 9.2 mph - N/A   Scattered Clouds
6:15 PM 62.6 °F - 23.2 °F 22% 30.24 in 10.0 mi WNW 11.5 mph 20.7 mph N/A   Clear
6:35 PM 61.3 °F - 22.1 °F 22% 30.24 in 10.0 mi NW 11.5 mph 28.8 mph N/A   Clear
6:55 PM 61.0 °F - 24.3 °F 25% 30.25 in 10.0 mi NW 11.5 mph 19.6 mph N/A   Scattered Clouds
7:15 PM 60.4 °F - 23.5 °F 24% 30.25 in 10.0 mi WNW 15.0 mph 20.7 mph N/A   Clear
7:35 PM 59.4 °F - 22.8 °F 25% 30.25 in 10.0 mi WNW 12.7 mph 23.0 mph N/A   Clear
7:55 PM 59.0 °F - 20.7 °F 23% 30.25 in 10.0 mi WNW 13.8 mph 20.7 mph N/A   Clear
8:15 PM 57.7 °F - 20.5 °F 24% 30.25 in 10.0 mi WNW 16.1 mph 26.5 mph N/A   Clear
8:35 PM 57.2 °F - 21.9 °F 26% 30.25 in 10.0 mi WNW 10.4 mph 17.3 mph N/A   Clear
8:55 PM 56.3 °F - 22.6 °F 27% 30.25 in 10.0 mi NW 5.8 mph - N/A   Clear
9:15 PM 55.8 °F - 19.8 °F 25% 30.25 in 10.0 mi NW 5.8 mph - N/A   Clear
9:35 PM 53.8 °F - 23.9 °F 31% 30.25 in 10.0 mi NNE 3.5 mph - N/A   Clear
9:55 PM 53.6 °F - 25.5 °F 34% 30.25 in 10.0 mi Calm Calm - N/A   Clear
10:15 PM 51.8 °F - 28.0 °F 40% 30.25 in 10.0 mi NNE 3.5 mph - N/A   Scattered Clouds
10:35 PM 52.0 °F - 28.8 °F 41% 30.26 in 10.0 mi NNW 3.5 mph - N/A   Clear
10:55 PM 52.7 °F - 28.6 °F 40% 30.26 in 10.0 mi NW 4.6 mph - N/A   Mostly Cloudy
11:15 PM 52.2 °F - 28.9 °F 41% 30.25 in 10.0 mi NW 6.9 mph - N/A   Overcast
11:35 PM 51.8 °F - 30.0 °F 43% 30.26 in 10.0 mi NNW 6.9 mph - N/A   Overcast
11:55 PM 52.2 °F - 28.6 °F 40% 30.26 in 10.0 mi NW 10.4 mph - N/A   Overcast